Wetbulb
46.30 45.99 48.11 43.24 43.06 43.57 38.81 37.89 37.82 42.31 46.70 51.63 55.72 55.50 57.05 57.27 59.30 60.35 61.38 61.83 62.25 63.51 65.62 65.92 66.61 67.16 67.91 67.62 67.28 67.23 67.25 67.56
46.46 46.35 45.47 45.52 46.95 39.96 37.90 34.97 33.44 39.61 42.77 44.46 51.84 54.29 56.11 57.29 58.15 59.99 61.48 62.10 62.64 63.90 64.78 66.18 67.00 67.32 67.82 68.76 68.46 68.24 68.36 68.11
44.03 42.47 42.30 43.11 41.29 39.20 40.26 38.25 35.18 34.81 39.74 49.34 51.57 55.00 55.23 56.48 58.17 59.37 60.76 61.96 62.60 63.54 64.97 65.80 66.56 67.16 67.58 67.70 68.00 69.23 69.69 69.69
42.12 44.17 46.12 45.43 42.42 40.22 37.83 37.01 38.07 37.72 41.09 51.28 53.53 54.89 57.19 57.39 58.60 58.78 61.29 61.42 62.60 63.66 64.51 64.71 65.40 66.20 67.17 67.48 67.43 67.91 69.23 69.89
38.46 40.81 43.36 43.72 42.38 38.53 39.75 40.36 39.41 38.41 40.84 50.73 52.87 54.78 56.57 57.21 58.18 59.03 60.97 62.04 62.71 63.31 63.59 64.19 65.15 66.13 66.56 67.65 67.92 68.48 68.35 68.77
37.27 40.87 43.95 43.89 46.75 43.58 42.64 38.87 39.36 40.90 43.16 48.62 52.24 54.85 55.96 57.32 59.40 60.30 60.89 62.67 62.39 62.01 62.39 63.13 64.48 65.64 66.67 67.03 67.23 67.74 67.30 66.91
40.17 42.16 44.06 46.68 47.47 46.13 44.09 42.94 43.15 44.48 45.14 49.48 51.26 54.75 56.86 58.71 60.74 61.52 61.39 61.82 62.29 62.15 61.75 62.44 63.22 64.17 65.22 66.36 66.31 66.07 65.82 66.07
41.42 45.30 45.00 45.71 47.68 48.48 46.90 45.93 46.46 46.28 47.07 51.06 54.73 57.65 58.49 59.82 60.79 61.07 61.77 62.37 62.87 63.22 63.68 63.34 63.45 63.60 64.36 64.72 65.45 66.06 65.90 66.17
40.59 44.64 45.68 41.08 45.82 46.33 47.00 48.87 47.81 44.83 48.96 53.27 54.45 57.20 57.61 59.06 60.99 61.41 62.25 62.94 62.92 63.98 65.20 65.08 64.93 65.55 64.83 64.20 65.47 65.02 65.21 65.84
38.45 41.30 36.71 44.10 48.62 50.12 48.79 50.15 49.67 49.89 50.97 54.05 55.06 58.63 59.03 59.78 60.82 61.48 62.69 63.60 63.54 64.38 65.04 65.51 66.04 66.82 66.40 66.28 66.10 65.78 65.52 65.99
37.87 35.77 40.57 45.47 49.26 49.60 47.90 47.76 51.34 50.90 52.15 53.39 54.30 53.97 54.72 60.13 62.45 62.55 62.88 63.84 64.18 64.77 64.60 64.81 65.95 66.89 66.78 66.59 66.62 66.68 66.91 66.85
36.43 35.35 35.33 44.10 50.56 53.00 52.35 43.24 52.47 51.83 52.33 53.62 53.92 48.69 52.61 57.97 62.64 62.99 63.46 63.70 64.55 64.95 65.11 64.57 64.78 65.50 65.52 65.33 65.69 66.20 66.78 67.38
41.19 39.39 42.02 48.62 51.30 53.77 45.01 44.47 52.90 53.92 53.49 53.27 52.06 53.49 55.66 59.13 62.01 63.33 64.43 65.16 66.12 65.70 64.98 64.64 65.25 64.99 63.64 63.49 64.37 66.04 67.52 66.89
41.10 37.33 36.67 51.95 52.69 46.96 48.53 53.93 53.32 54.60 54.21 54.03 54.62 56.10 57.62 59.75 60.82 63.06 64.40 65.31 66.12 64.91 64.35 64.22 64.59 63.77 61.73 62.83 65.20 66.21 65.83 65.05
40.81 40.49 47.98 51.41 53.24 53.67 53.37 51.62 54.47 53.61 54.27 55.67 55.92 56.05 58.56 58.83 61.33 63.41 64.81 65.63 65.68 64.42 62.92 62.93 62.85 62.40 62.05 63.85 65.06 65.98 65.51 64.57
43.62 46.47 50.06 53.56 54.34 54.70 55.26 55.02 55.57 56.37 56.33 57.95 56.53 56.90 57.79 59.96 62.24 63.30 64.70 64.49 64.41 63.02 62.37 61.54 62.05 62.85 63.13 62.84 63.15 64.15 63.92 63.62
46.01 47.67 49.99 52.02 54.96 55.02 55.66 55.97 56.26 58.11 59.19 58.63 58.33 58.33 59.06 60.46 61.23 62.53 63.76 64.20 63.91 63.18 62.46 61.85 61.70 62.53 62.37 62.58 62.37 62.29 62.98 61.93
44.53 50.51 49.68 51.38 54.37 56.15 55.51 54.92 55.46 57.44 57.73 59.62 58.75 58.46 58.87 58.41 59.56 60.55 59.69 61.61 61.32 60.97 61.14 61.24 62.14 62.06 62.21 62.30 62.27 61.90 62.33 61.07
51.64 53.24 51.76 53.40 54.62 55.99 54.96 55.47 56.87 56.96 58.61 58.54 58.79 59.28 59.55 58.81 60.37 59.64 61.38 61.51 61.05 60.68 61.70 61.78 61.98 61.88 62.30 61.82 61.29 60.95 60.86 61.88
MSLP
1005.47 1005.56 1006.31 1008.82 1009.84 1009.83 1011.95 1013.31 1013.24 1012.28 1010.39 1007.99 1007.07 1006.75 1006.84 1007.00 1007.43 1007.84 1008.33 1008.92 1009.49 1010.03 1010.36 1010.67 1011.21 1011.58 1012.14 1012.97 1013.35 1013.64 1013.98 1014.60
1005.42 1005.42 1005.96 1006.69 1007.76 1009.73 1011.34 1012.51 1012.97 1012.19 1010.69 1008.62 1007.41 1007.00 1007.01 1007.30 1007.42 1007.74 1008.21 1008.82 1009.15 1009.61 1009.92 1010.10 1010.54 1011.23 1011.86 1012.23 1012.56 1013.03 1013.57 1013.90
1005.79 1005.55 1005.74 1006.82 1007.62 1008.89 1010.23 1011.40 1011.99 1011.66 1010.25 1007.55 1006.94 1006.83 1006.97 1007.06 1007.20 1007.35 1007.84 1008.44 1008.71 1009.13 1009.63 1010.29 1010.64 1011.11 1011.68 1012.07 1012.43 1012.72 1013.12 1013.56
1006.10 1005.31 1005.44 1005.96 1006.88 1008.01 1009.76 1011.30 1011.59 1010.76 1008.73 1006.68 1006.56 1006.41 1006.50 1006.65 1006.86 1006.98 1007.57 1008.02 1008.57 1008.99 1009.60 1010.18 1010.55 1011.10 1011.48 1011.81 1012.20 1012.42 1012.77 1013.30
1006.53 1005.88 1005.44 1005.69 1006.39 1007.14 1008.22 1009.51 1010.51 1010.19 1008.15 1006.65 1006.29 1006.27 1006.15 1006.46 1006.63 1006.80 1007.41 1007.93 1008.61 1009.17 1009.56 1009.91 1010.40 1010.92 1011.34 1011.52 1011.71 1012.16 1012.59 1012.92
1006.71 1005.54 1004.96 1005.39 1005.80 1006.80 1007.13 1008.79 1009.47 1008.81 1007.51 1006.46 1006.43 1005.85 1006.07 1006.20 1006.48 1006.56 1007.23 1008.08 1008.54 1009.00 1009.44 1009.85 1010.22 1010.59 1011.01 1011.43 1011.71 1012.02 1012.41 1012.78
1006.03 1005.45 1005.27 1004.67 1004.93 1005.75 1006.57 1006.75 1007.22 1006.87 1006.95 1005.75 1005.55 1005.82 1005.75 1005.45 1005.93 1006.52 1007.09 1007.88 1008.50 1008.99 1009.31 1009.73 1010.08 1010.45 1010.93 1011.24 1011.65 1012.03 1012.41 1012.77
1006.57 1005.30 1004.97 1004.92 1004.36 1004.70 1005.35 1005.65 1005.85 1005.83 1005.81 1004.82 1004.98 1005.28 1005.74 1005.80 1005.89 1006.27 1006.56 1007.23 1007.99 1008.49 1008.98 1009.41 1009.82 1010.39 1010.83 1011.02 1011.36 1011.81 1012.15 1012.52
1007.03 1006.14 1005.31 1005.04 1004.21 1004.01 1004.28 1004.32 1004.39 1005.10 1004.35 1004.48 1005.01 1004.97 1005.25 1005.87 1006.10 1005.87 1006.39 1007.04 1007.63 1008.00 1008.54 1008.94 1009.29 1009.63 1010.25 1010.73 1011.12 1011.55 1011.96 1012.29
1008.03 1006.77 1005.41 1004.05 1003.55 1003.43 1003.58 1003.18 1003.48 1003.49 1003.70 1003.83 1003.85 1003.66 1003.98 1004.42 1005.00 1005.59 1006.01 1006.35 1007.06 1007.64 1008.10 1008.39 1008.92 1009.39 1009.81 1010.27 1010.72 1011.30 1011.74 1012.03
1008.77 1007.80 1006.10 1004.31 1003.33 1003.41 1003.46 1003.35 1002.99 1003.14 1003.50 1004.00 1004.25 1004.67 1004.37 1003.81 1003.90 1004.34 1005.03 1005.44 1006.42 1007.33 1007.76 1008.36 1008.91 1009.27 1009.70 1010.18 1010.55 1010.97 1011.33 1011.63
1009.36 1008.34 1006.76 1004.96 1003.68 1003.18 1003.27 1003.94 1003.37 1003.28 1003.72 1003.98 1004.54 1005.10 1003.63 1003.10 1002.66 1003.83 1004.59 1005.41 1006.38 1007.21 1007.54 1008.41 1009.25 1009.59 1009.94 1010.24 1010.40 1010.68 1010.95 1011.19
1008.99 1008.78 1006.93 1005.31 1004.62 1003.66 1003.83 1004.48 1004.16 1003.90 1004.02 1004.30 1004.36 1003.81 1002.67 1002.32 1002.85 1002.98 1004.01 1005.17 1006.22 1007.09 1007.27 1008.26 1009.27 1009.74 1010.24 1010.54 1010.61 1010.76 1010.84 1011.08
1009.99 1009.08 1008.10 1006.50 1005.23 1006.03 1005.31 1004.43 1004.39 1004.30 1004.38 1004.34 1003.87 1003.11 1002.81 1002.57 1002.78 1002.70 1003.94 1005.28 1006.13 1007.19 1007.60 1008.35 1009.18 1009.69 1010.36 1010.61 1010.69 1010.77 1011.01 1011.29
1011.21 1009.61 1008.02 1007.64 1007.19 1006.40 1006.08 1005.51 1004.70 1004.68 1004.25 1004.00 1003.81 1003.43 1002.50 1002.70 1002.87 1003.48 1003.79 1004.95 1006.02 1006.85 1007.70 1008.64 1009.07 1009.49 1010.22 1010.44 1010.56 1010.74 1011.03 1011.36
1010.91 1009.32 1008.47 1007.81 1007.26 1006.65 1006.41 1005.77 1004.97 1004.33 1004.24 1003.69 1003.52 1003.40 1003.06 1002.72 1003.59 1003.78 1004.05 1005.01 1005.79 1006.69 1007.83 1008.77 1009.23 1009.65 1009.95 1010.37 1010.68 1010.94 1011.24 1011.40
1010.48 1009.35 1008.16 1007.55 1006.90 1006.41 1006.30 1005.72 1005.28 1004.71 1004.10 1003.45 1003.28 1003.20 1003.33 1003.50 1003.76 1004.10 1004.75 1005.47 1005.89 1006.59 1007.58 1008.65 1009.35 1009.68 1009.95 1010.30 1010.70 1011.08 1011.41 1011.76
1010.13 1009.56 1009.12 1007.26 1006.30 1006.13 1005.69 1005.46 1004.99 1004.52 1004.00 1003.90 1004.24 1004.39 1003.94 1004.02 1004.20 1004.24 1005.49 1006.47 1007.22 1008.11 1008.89 1008.75 1009.27 1009.49 1009.84 1010.20 1010.60 1011.06 1011.63 1012.04
1009.21 1008.17 1007.86 1006.90 1006.39 1005.78 1005.48 1005.05 1004.93 1004.64 1004.41 1004.49 1004.68 1004.68 1004.61 1004.96 1005.15 1004.90 1005.38 1005.66 1007.38 1009.24 1008.40 1010.20 1009.36 1009.35 1009.72 1010.00 1010.34 1010.83 1011.48 1011.96
Wind_Speed
5 5 11 6 5 6 8 3 3 3 8 9 2 4 3 5 7 12 11 11 12 12 12 12 12 14 14 13 10 10 11 8
5 3 1 7 7 3 2 4 3 4 6 7 3 5 3 6 9 8 7 8 9 11 12 11 11 9 9 10 13 11 9 10
3 3 5 2 2 6 6 5 6 3 8 7 8 6 8 7 7 9 10 9 9 10 8 7 5 7 8 7 8 9 9 7
15 3 3 5 7 5 7 5 1 4 8 4 7 6 7 8 7 6 7 8 8 8 6 7 7 7 9 9 9 9 7 7
11 6 2 5 4 5 7 5 6 7 8 2 5 6 8 8 8 7 6 6 6 6 7 7 7 8 8 8 9 6 7 7
9 10 4 4 6 5 6 5 7 7 5 5 7 8 6 8 8 8 8 9 6 4 5 5 6 6 5 5 5 5 6 5
8 9 5 7 7 10 7 6 8 8 9 9 8 8 7 8 7 7 8 8 7 6 6 6 5 5 4 4 4 5 6 5
5 5 7 5 7 9 4 5 2 5 7 6 4 6 6 8 9 7 7 8 7 5 6 6 6 6 5 5 5 5 5 5
6 1 1 3 8 8 5 5 9 7 11 6 5 9 8 6 7 10 7 7 9 9 8 6 5 5 5 6 5 5 5 4
4 1 8 8 2 5 6 5 6 2 4 12 9 10 10 10 12 8 9 9 9 9 6 7 5 4 4 5 5 5 4 4
3 3 6 4 3 3 5 8 7 6 4 3 2 4 6 12 14 16 13 10 8 8 7 5 5 5 5 5 5 4 3 2
3 4 8 7 3 4 4 5 3 5 6 4 6 4 10 12 20 14 10 9 8 8 7 9 6 5 5 4 4 1 2 1
4 3 7 5 7 3 7 6 2 4 5 6 6 8 6 9 13 14 14 14 11 9 9 8 7 7 6 4 4 3 3 4
1 4 7 7 6 4 3 2 3 2 3 5 8 8 7 8 9 18 16 13 12 9 8 7 7 6 6 5 3 4 5 4
4 5 3 5 3 5 4 5 2 5 6 7 7 8 6 7 11 12 17 14 12 12 10 6 6 7 7 5 4 4 4 5
5 4 5 9 7 4 4 5 7 8 9 4 6 7 8 6 7 12 13 15 13 14 11 8 6 6 5 6 4 4 3 3
4 12 14 8 7 5 7 6 6 5 4 6 4 3 5 4 7 7 6 7 10 12 11 9 7 6 6 7 6 5 3 4
4 15 8 8 5 5 5 7 7 7 8 5 6 2 6 5 6 11 12 9 9 7 4 7 7 6 6 6 6 6 5 4
2 20 11 12 8 6 6 6 5 5 5 3 5 3 3 4 5 11 11 16 7 4 2 7 7 7 5 5 6 5 4 4
Wind_Direction
201 159 136 197 195 189 105 348 79 236 287 297 332 19 86 146 155 177 182 179 183 186 189 190 192 192 186 180 196 190 198 192
284 128 45 157 161 96 342 146 233 285 281 245 292 244 221 168 174 179 180 177 180 194 195 197 194 180 177 181 189 196 195 196
20 254 196 126 216 53 113 122 160 186 263 212 223 209 200 206 201 185 184 193 196 200 197 180 155 160 180 181 172 186 196 204
237 227 154 184 198 144 123 221 144 149 270 246 246 204 198 208 211 203 188 182 190 185 162 165 164 160 180 188 193 204 187 194
327 356 350 195 197 122 108 90 193 140 257 309 255 213 192 199 211 201 165 154 166 161 178 181 172 174 187 190 203 183 178 197
206 226 156 175 174 179 126 128 168 224 253 264 247 212 188 190 200 190 171 159 159 174 186 186 179 175 183 187 196 154 170 185
245 244 242 211 179 170 185 175 156 216 193 247 217 222 217 198 176 167 158 149 167 180 188 189 192 180 183 183 179 166 169 187
278 266 211 256 213 177 162 145 131 145 242 217 185 151 180 197 180 173 177 154 168 167 170 190 190 184 179 185 185 172 175 178
241 348 179 309 225 188 183 177 151 161 219 159 192 182 189 187 201 182 170 168 172 175 184 171 186 177 179 165 158 174 183 181
261 14 228 233 211 212 238 212 200 136 184 184 196 207 178 179 186 187 180 172 185 172 170 164 163 153 135 149 154 163 190 206
192 219 293 293 79 125 158 267 196 182 152 184 289 32 271 202 196 190 186 186 178 179 156 138 155 153 139 135 140 149 185 216
140 186 224 236 232 174 145 263 302 157 173 172 137 158 241 221 195 182 165 161 167 161 133 137 154 138 123 121 113 106 289 16
157 285 288 287 311 247 152 222 308 180 181 174 192 204 245 213 191 173 160 160 152 165 149 138 141 138 128 133 145 127 102 95
333 145 273 354 317 302 279 296 207 192 244 251 264 270 250 207 170 152 150 150 153 143 137 132 138 125 133 150 156 136 126 106
186 265 305 310 268 288 292 285 273 216 222 251 255 253 213 177 159 174 152 151 149 146 134 136 143 137 147 182 160 141 138 135
33 297 251 271 285 246 281 279 293 293 269 210 252 254 243 158 169 157 152 155 150 143 143 150 158 160 163 154 159 158 178 158
258 289 289 264 249 253 278 287 273 283 275 308 310 238 170 154 143 125 121 135 144 150 147 157 163 163 159 158 157 157 161 137
213 294 288 266 273 264 282 289 308 330 338 343 2 328 112 106 115 108 91 81 64 62 2 163 167 169 171 156 155 148 148 149
186 247 227 259 269 270 269 266 273 308 319 329 28 39 93 94 100 112 117 107 63 319 124 280 184 173 173 162 153 150 154 161